SCP
0 0 0 0 0 0 0 0 0 0 0 0 0 0 0 0 0 0 0 0 0 0 0 0 0 0 0 0 0 0 0 0 0 0 0 0 0 0 0 0 0 0 0 0 0 0 0 0 0 0 0 0 0 0
0 0 0 0 0 0 0 0 0 0 0 0 0 0 0 0 0 0 0 0 0 0 0 0 0 0 0 0 0 1 1 1 0 0 0 0 0 0 0 0 0 0 0 0 0 0 0 0 0 0 0 0 0 0
0 0 0 0 0 0 0 0 0 0 0 0 0 0 0 0 0 0 0 0 0 0 0 0 0 0 0 0 0 1 0 0 0 0 0 0 0 0 0 0 0 0 0 0 0 0 0 0 0 0 0 0 0 0
0 0 0 0 0 0 0 0 0 0 0 0 0 0 0 0 0 0 0 0 0 0 0 0 0 0 0 0 0 0 0 0 0 0 0 0 0 0 0 0 0 0 0 0 0 0 0 0 0 0 0 0 0 0
0 0 0 0 0 0 0 0 0 0 0 0 0 0 0 0 0 0 0 0 0 0 0 0 0 0 0 0 0 0 0 0 0 0 0 0 0 0 0 0 0 0 0 0 0 0 0 0 0 0 0 0 0 0
0 0 0 0 0 0 0 0 0 0 0 0 0 0 0 0 0 0 0 0 0 0 0 0 0 0 0 0 0 0 0 0 0 0 0 0 0 0 0 0 0 0 0 0 0 0 0 0 0 0 0 0 0 0
0 0 0 0 0 0 0 0 0 0 0 0 0 0 0 0 0 0 0 0 0 0 0 0 0 0 0 0 0 0 0 0 0 0 0 0 0 0 0 0 0 0 0 0 0 0 0 0 0 0 0 0 0 0
0 0 0 0 0 0 0 0 0 0 0 0 0 0 0 0 0 0 0 0 0 0 0 0 0 0 0 0 0 0 0 0 0 0 0 0 0 0 0 0 0 0 0 0 0 0 0 0 0 0 0 0 0 0
0 0 0 0 0 0 0 0 0 0 0 0 0 0 0 0 0 0 0 0 0 0 0 0 0 0 0 0 0 0 0 0 0 0 0 0 0 0 0 0 0 0 0 0 0 0 0 0 0 0 0 0 0 0
0 0 0 0 0 0 0 0 0 0 0 0 0 0 0 0 0 0 0 0 0 0 0 0 0 0 0 0 0 0 0 0 0 0 0 0 0 0 0 0 0 0 0 0 0 0 0 0 0 0 0 0 0 0
0 0 0 0 0 0 0 0 0 0 0 0 0 0 0 0 0 0 0 0 0 0 0 0 0 0 0 0 0 0 0 0 0 0 0 0 0 0 0 0 0 0 0 0 0 0 0 0 0 0 0 0 0 0
0 0 0 0 0 0 0 0 0 0 0 0 0 0 0 0 0 0 0 0 0 0 0 0 0 0 0 0 0 0 0 0 0 0 0 0 0 0 0 0 0 0 0 0 0 0 0 0 0 0 0 0 0 0
0 0 0 0 0 0 0 0 0 0 0 0 0 0 0 0 0 0 0 0 0 0 0 0 0 0 0 0 0 0 0 0 0 0 0 0 0 0 0 0 0 0 0 0 0 0 0 0 0 0 0 0 0 0
0 0 0 0 0 0 0 0 0 0 0 0 0 0 0 0 0 0 0 0 0 0 0 0 0 0 0 0 0 0 0 0 0 0 0 0 0 0 0 0 0 0 0 0 0 0 0 0 0 0 0 0 0 0
0 0 0 0 0 0 0 0 0 0 0 0 0 0 0 0 0 0 0 0 0 0 0 0 0 0 0 0 0 0 0 0 0 0 0 0 0 0 0 0 0 0 0 0 0 0 0 0 0 0 0 0 0 0
0 0 0 0 0 0 0 0 0 0 0 0 0 0 0 0 0 0 0 0 0 0 0 0 0 0 0 0 0 0 0 0 0 0 0 0 0 0 0 0 0 0 0 0 0 0 0 0 0 0 0 0 0 0
0 0 0 0 0 0 0 0 0 0 0 0 0 0 0 0 0 0 0 0 0 0 0 0 0 0 0 0 0 0 0 0 0 0 0 0 0 0 0 0 0 0 0 0 0 0 0 0 0 0 0 0 0 0
0 0 0 0 0 0 0 0 0 0 0 0 0 0 0 0 0 0 0 0 0 0 0 0 0 0 0 0 0 0 0 0 0 0 0 0 0 0 0 0 0 0 0 0 0 0 0 0 0 0 0 0 0 0
0 0 0 0 0 0 0 0 0 0 0 0 0 0 0 0 0 0 0 0 0 0 0 0 0 0 0 0 0 0 0 0 0 0 0 0 0 0 0 0 0 0 0 0 0 0 0 0 0 0 0 0 0 0
0 0 0 0 0 0 0 0 0 0 0 0 0 0 0 0 0 0 0 0 0 0 0 0 0 0 0 0 0 0 0 0 0 0 0 0 0 0 0 0 0 0 0 0 0 0 0 0 0 0 0 0 0 0
0 0 0 0 0 0 0 0 0 0 0 0 0 0 0 0 0 0 0 0 0 0 0 0 0 0 0 0 0 0 0 0 0 0 0 0 0 0 0 0 0 0 0 0 0 0 0 0 0 0 0 0 0 0
0 0 0 0 0 0 0 0 0 0 0 0 0 0 0 0 0 0 0 0 0 0 0 0 0 0 0 0 0 0 0 0 0 0 0 0 0 0 0 0 0 0 0 0 0 0 0 0 0 0 0 0 0 0
0 0 0 0 0 0 0 0 0 0 0 0 0 0 0 0 0 0 0 0 0 0 0 0 0 0 0 0 0 0 0 0 0 0 0 0 0 0 0 0 0 0 0 0 0 0 0 0 0 0 0 0 0 0
0 0 0 0 0 0 0 0 0 0 0 0 0 0 0 0 0 0 0 0 0 0 0 0 0 0 0 0 0 0 0 0 0 0 0 0 0 0 0 0 0 0 0 0 0 0 0 0 0 0 0 0 0 0
0 0 0 0 0 0 0 0 0 0 0 0 0 0 0 0 0 0 0 0 0 0 0 0 0 0 0 0 0 0 0 0 0 0 0 0 0 0 0 0 0 0 0 0 0 0 0 0 0 0 0 0 0 0
0 0 0 0 0 0 0 0 0 0 0 0 0 0 0 0 0 0 0 0 0 0 0 0 0 0 0 0 0 0 0 0 0 0 0 0 0 0 0 0 0 0 0 0 0 0 0 0 0 0 0 0 0 0
0 0 0 0 0 0 0 0 0 0 0 0 0 0 0 0 0 0 0 0 0 0 0 0 0 0 0 0 0 0 0 0 0 0 0 0 0 0 0 0 0 0 0 0 0 0 0 0 0 0 0 0 0 0
0 0 0 0 0 0 0 0 0 0 0 0 0 0 0 0 0 0 0 0 0 0 0 0 0 0 0 0 0 0 0 0 0 0 0 0 0 0 0 0 0 0 0 0 0 0 0 0 0 0 0 0 0 0
0 -0 0 0 0 -0 0 -0 0 0 0 0 0 0 0 0 0 0 0 0 0 0 0 0 0 0 0 0 0 0 0 0 0 0 0 0 0 0 0 0 0 0 0 0 0 0 0 0 0 0 0 0 0 0
0 0 -0 0 0 -0 0 -0 0 0 0 0 0 0 0 0 0 0 0 0 0 0 0 0 0 0 0 0 0 0 0 0 0 0 0 0 0 0 0 0 0 0 0 0 0 0 0 0 0 0 0 0 0 0
-0 0 0 0 0 -0 0 -0 -0 -0 -0 0 0 0 0 0 0 0 0 0 0 0 0 0 0 0 0 0 0 0 0 0 0 0 0 0 0 0 0 0 0 0 0 0 0 -0 -0 0 0 0 0 0 0 0
0 0 0 0 0 -0 -0 0 0 0 0 -0 -0 -0 0 0 0 0 0 0 0 0 0 0 0 0 0 0 0 0 0 0 0 0 0 0 0 0 0 0 0 0 0 0 -0 0 0 0 0 0 0 0 0 0
0 0 0 0 0 0 -0 0 -0 -0 0 0 -0 -0 -0 -0 -0 0 0 -0 -0 0 0 0 0 0 0 0 0 0 0 0 0 0 0 0 0 0 0 0 0 0 0 0 0 0 0 0 0 0 0 0 0 0
Wind_Speed_500mb
46 43 41 36 32 28 24 15 11 7 8 6 6 9 13 16 19 21 15 23 12 3 8 6 6 3 2 2 10 8 9 5 8 8 9 6 8 6 7 5 7 12 10 8 4 10 15 27 19 9 18 20 18 10
50 47 44 42 37 32 29 22 18 14 8 7 7 9 11 14 16 18 17 22 14 6 2 10 14 13 11 6 1 1 4 6 4 6 3 5 6 6 8 13 7 11 6 6 8 8 6 38 4 14 22 21 19 16
53 50 52 50 49 43 38 34 28 24 17 10 7 8 12 12 15 16 17 22 11 5 4 3 4 14 18 15 4 3 3 4 5 13 7 4 4 5 11 14 5 8 7 8 5 13 12 29 14 14 23 20 20 17
57 51 48 50 54 53 44 36 30 30 26 20 14 9 10 11 12 14 16 18 11 8 5 3 6 10 14 18 17 12 8 11 16 10 6 4 5 4 2 5 11 10 11 9 11 10 8 18 33 20 27 24 25 24
57 51 46 41 47 49 47 45 39 33 29 24 20 16 11 10 9 9 8 11 9 4 7 4 1 3 8 13 15 13 14 14 7 5 5 5 7 8 3 4 10 14 4 10 7 8 12 5 19 33 33 34 31 31
52 57 51 44 40 42 43 44 41 35 30 25 22 19 15 12 9 6 6 6 8 11 7 4 5 4 3 4 9 9 7 8 5 5 6 6 5 4 8 9 2 16 13 12 8 2 7 7 4 20 33 37 34 29
55 51 50 48 39 37 36 38 38 35 31 27 23 20 17 13 9 4 3 6 4 1 3 7 5 3 9 5 2 7 10 6 6 4 4 2 6 5 6 14 11 13 21 18 16 13 14 14 7 11 25 33 34 26
51 55 49 48 42 36 32 30 30 30 30 26 20 18 16 14 13 10 10 5 2 3 3 6 3 7 10 5 4 3 2 3 7 1 4 5 4 8 9 9 10 14 17 18 18 14 10 4 1 8 18 28 31 30
46 53 59 52 48 43 35 29 27 26 26 23 18 12 9 10 8 15 14 5 2 2 5 6 6 6 10 5 5 2 1 4 1 7 6 5 8 12 7 8 8 7 8 12 11 14 15 9 5 6 11 18 26 28
43 47 53 57 51 42 41 34 28 26 25 20 15 7 9 12 13 17 7 2 4 6 6 8 5 6 9 13 9 9 5 3 6 6 5 8 13 15 12 11 17 22 20 12 15 15 14 10 10 10 13 13 17 19
43 43 49 55 55 49 40 36 32 29 26 19 9 7 10 21 14 7 8 9 9 8 13 12 17 8 8 12 8 6 3 5 6 8 7 9 7 8 4 12 18 21 23 18 14 7 3 6 7 7 7 8 8 6
43 41 45 51 55 51 44 38 36 36 18 18 11 15 22 6 6 9 8 8 11 9 13 14 16 14 9 7 9 9 5 6 6 13 7 6 7 1 7 10 8 4 14 12 13 12 14 14 13 13 10 7 3 0
43 42 43 49 54 52 45 42 38 32 22 19 8 10 9 8 6 13 17 8 8 11 15 13 13 14 6 7 4 10 11 8 11 8 6 1 8 4 6 9 10 8 16 13 10 11 15 15 12 11 8 4 3 2
45 42 43 48 54 56 51 43 35 34 25 6 10 6 12 10 12 10 13 9 7 8 18 20 18 11 8 12 7 8 4 7 8 8 10 11 12 8 11 15 20 22 19 17 16 16 17 18 18 16 13 6 4 5
42 43 42 46 56 60 54 44 36 37 18 8 7 8 13 7 8 10 10 5 6 10 20 13 10 10 13 7 8 4 10 9 13 9 6 19 18 19 21 24 28 29 30 31 29 28 27 24 23 21 18 17 15 15
42 40 48 55 58 60 58 49 41 36 6 7 10 9 11 11 15 13 12 13 9 16 16 8 9 8 11 7 13 16 11 9 9 8 20 26 26 25 25 26 29 29 31 32 31 31 30 28 26 25 24 23 23 23
46 30 55 55 57 63 57 51 24 15 12 8 10 20 15 6 4 8 12 15 15 17 10 6 10 12 7 10 13 7 15 2 18 24 27 29 30 28 28 29 29 30 31 31 30 28 27 24 20 17 18 19 20 23
38 31 58 59 66 61 54 19 13 13 13 14 13 17 15 12 6 6 8 12 16 14 12 4 3 9 8 12 15 12 9 15 21 27 31 31 29 29 28 30 28 27 27 25 24 22 21 19 18 18 19 22 21 24
44 45 64 62 81 39 10 14 12 13 14 13 15 14 12 11 12 12 8 9 16 11 6 8 8 8 11 6 4 14 22 27 33 33 33 31 30 30 29 27 25 23 21 18 16 13 12 15 16 17 18 21 23 25
45 50 58 63 64 12 8 7 18 7 10 13 16 15 14 11 7 10 12 14 16 13 15 11 14 6 5 6 4 11 23 30 39 42 36 32 29 28 24 20 18 15 11 9 8 6 9 10 15 17 20 24 25 27
78 63 53 50 26 10 5 10 11 12 7 11 21 27 23 15 18 18 18 16 21 17 20 30 33 22 18 9 6 18 26 33 34 34 38 36 29 24 20 15 11 8 4 4 6 12 16 17 19 21 25 28 29 32
50 57 40 18 7 7 5 9 6 12 9 7 18 25 21 30 32 29 19 25 19 24 25 19 22 23 21 20 19 26 34 35 33 36 36 33 27 21 16 11 6 1 4 8 11 16 21 23 25 30 31 32 36 35
42 28 12 6 6 4 7 11 8 13 11 10 14 19 17 19 23 15 18 27 27 16 18 17 17 16 23 29 34 32 35 37 36 34 31 25 21 15 10 5 1 4 9 13 19 24 25 32 32 30 33 32 32 33
29 7 5 8 7 8 8 9 8 8 10 8 12 22 12 18 13 19 21 34 23 18 20 22 25 27 30 33 35 34 33 31 31 28 23 19 15 12 8 3 5 10 18 21 19 20 21 24 30 28 29 30 31 33
4 5 7 4 8 10 11 11 11 9 11 14 14 14 12 14 9 9 19 36 26 25 27 30 28 30 36 37 33 30 32 25 23 21 17 16 14 8 4 4 9 15 16 12 14 20 24 27 28 28 29 29 29 32
6 9 13 16 13 10 12 13 16 18 16 17 15 10 17 13 14 10 9 29 30 32 37 41 32 27 27 28 29 28 35 25 21 18 16 15 12 10 9 9 10 10 10 11 16 21 26 28 28 28 30 32 37 40
5 9 10 12 8 10 8 12 14 13 14 12 11 13 9 11 11 10 19 26 23 26 27 33 40 34 23 19 20 21 25 25 21 20 18 20 21 20 14 11 12 12 13 17 20 22 24 26 27 30 36 39 36 35
10 8 11 22 16 16 10 12 13 13 13 11 9 11 9 10 6 4 9 14 26 29 29 30 44 40 45 29 29 31 31 34 32 27 23 20 22 22 23 19 15 22 24 21 19 22 24 26 30 37 36 34 39 41
10 10 9 15 13 12 21 13 15 15 12 17 12 11 7 4 5 4 5 9 15 16 19 25 30 36 36 37 35 29 31 27 22 20 19 17 16 16 16 15 14 15 15 16 26 29 27 28 31 30 28 34 38 40
10 16 11 12 11 12 13 18 14 12 11 13 11 6 6 5 7 11 9 11 14 17 20 22 26 28 30 32 31 27 27 23 20 20 19 18 16 16 16 15 16 16 18 20 22 23 24 28 19 21 27 34 29 30
4 8 9 9 7 7 9 12 10 10 9 8 10 9 10 7 7 12 14 17 22 23 23 23 25 25 26 26 26 26 23 21 23 24 21 16 15 14 14 15 16 19 19 20 23 21 24 19 19 23 25 27 26 31
6 10 7 6 6 10 12 11 12 12 12 12 12 13 11 11 10 12 26 29 29 31 31 24 22 21 22 21 21 20 26 19 18 18 17 15 12 13 14 16 19 17 15 16 17 20 23 19 18 18 20 24 28 30
7 9 6 7 9 11 14 9 6 6 13 13 14 16 15 13 11 13 15 38 34 30 27 25 21 20 24 22 21 20 21 18 19 17 14 13 12 12 14 12 11 9 7 7 14 16 14 11 11 14 17 19 21 23
Wind_Direction_500mb
199 188 185 190 199 211 228 234 240 247 238 249 295 326 333 353 4 16 11 14 41 5 52 44 31 107 184 258 203 131 151 172 188 186 218 142 212 139 209 79 210 207 212 206 237 258 250 146 142 229 111 134 155 155
207 202 200 208 216 216 229 237 255 248 258 242 266 300 317 347 349 9 8 2 24 33 14 88 82 88 88 74 320 99 19 106 113 124 92 155 172 187 259 232 167 221 283 313 251 11 111 170 67 167 161 158 169 163
209 208 209 212 221 228 229 242 247 250 253 263 255 281 302 333 343 360 1 3 28 5 129 162 111 70 61 46 105 277 125 108 71 117 112 92 166 276 225 234 255 194 189 240 264 181 182 193 185 174 177 170 167 173
207 208 208 213 221 229 231 233 238 250 256 257 267 268 288 315 331 351 1 7 1 287 286 113 105 71 56 51 58 80 121 109 117 85 107 156 208 245 251 344 268 28 172 203 247 232 206 210 208 193 182 172 167 168
202 205 204 212 215 219 229 231 236 245 251 256 259 264 274 294 313 324 339 356 3 84 15 343 349 37 43 49 51 74 96 95 80 131 145 119 112 176 142 250 231 190 178 232 278 68 260 49 208 200 190 182 178 173
200 205 211 212 208 213 226 224 224 231 242 252 258 254 257 264 285 325 335 316 305 11 40 240 276 217 201 40 34 44 77 76 58 60 88 104 169 258 208 245 117 207 217 240 292 329 264 257 258 209 207 193 186 185
202 196 199 204 200 207 214 213 216 225 234 242 250 253 248 249 254 232 243 297 301 262 331 255 193 286 201 186 11 31 40 65 59 94 81 125 169 236 261 252 252 254 250 250 257 268 284 269 256 217 201 197 193 185
200 199 197 201 202 201 198 198 204 214 222 231 239 245 244 235 230 229 241 329 20 179 293 274 162 186 176 172 155 60 50 72 38 133 145 205 183 235 252 248 261 264 269 258 254 249 253 285 196 182 186 192 192 191
198 198 200 201 201 201 197 200 200 204 210 218 221 232 235 209 197 218 217 256 304 168 261 249 228 163 168 136 106 115 173 218 200 230 203 217 194 229 263 234 245 275 276 269 282 246 228 246 229 202 193 204 209 212
196 196 197 200 199 196 197 202 199 198 199 199 191 186 206 202 183 167 173 222 227 244 248 259 207 171 196 182 157 154 199 208 216 164 154 232 248 257 253 260 276 276 269 274 241 233 231 230 255 245 231 230 225 220
194 193 194 195 196 197 194 197 196 191 188 179 206 205 200 147 132 176 201 211 182 219 206 226 216 193 189 202 160 221 174 167 228 139 241 199 240 180 231 289 274 270 258 227 225 224 194 144 118 132 143 144 144 175
192 192 190 190 192 193 192 193 190 185 185 190 172 140 141 181 176 200 195 180 218 215 185 199 195 197 165 161 204 174 215 202 226 140 230 239 111 68 322 310 307 297 159 161 150 151 136 110 110 107 98 83 80 181
190 189 187 188 189 184 183 179 183 188 178 164 185 182 186 175 170 203 183 190 206 190 189 181 168 167 135 190 174 189 207 204 129 199 223 317 125 84 35 37 39 158 172 170 153 111 124 119 127 118 91 53 57 338
187 186 185 187 186 181 174 176 178 175 173 202 187 202 214 189 219 185 200 178 140 169 165 167 156 184 164 186 164 208 133 166 210 216 220 141 142 101 78 84 82 87 105 120 122 124 120 113 104 110 109 98 58 26
184 183 184 184 181 179 172 174 174 177 170 217 230 234 208 215 211 193 208 198 173 151 152 151 158 198 168 185 211 147 183 216 213 219 123 151 134 117 105 98 94 93 95 95 98 100 99 94 91 88 78 67 55 43
178 178 187 180 175 178 177 173 176 183 208 219 234 256 219 225 196 196 191 187 159 159 161 187 174 197 192 223 189 202 204 217 182 151 142 142 133 124 115 106 99 98 95 93 91 89 87 82 78 75 71 61 52 43
175 185 180 180 174 175 176 167 160 176 210 212 241 230 250 290 221 172 188 182 173 170 184 185 205 178 128 206 212 215 221 161 137 140 142 144 139 130 120 112 106 102 96 92 89 84 80 76 75 67 53 39 22 8
182 177 183 178 175 174 161 156 150 186 209 209 219 193 209 229 217 196 195 198 180 193 199 209 270 218 210 193 214 169 159 130 136 140 139 139 134 128 124 115 109 102 97 91 85 78 69 55 42 27 8 350 346 336
186 167 180 182 175 150 124 152 165 196 208 185 213 226 232 239 236 235 223 207 201 205 237 218 236 227 207 226 258 170 169 162 149 144 140 136 134 131 124 117 111 106 101 95 84 65 36 359 347 337 336 331 325 320
174 170 171 181 178 145 108 133 153 189 206 190 200 212 225 233 223 227 222 213 203 200 210 222 228 200 253 226 215 193 175 166 156 147 144 143 140 133 128 126 122 110 95 72 29 36 353 338 331 333 325 326 323 314
149 143 148 159 146 103 127 152 165 190 179 206 199 211 226 236 242 230 220 205 204 222 221 228 236 232 254 286 192 172 169 166 166 165 156 149 147 143 136 130 120 111 85 14 346 328 339 319 314 317 316 311 305 305
141 144 131 110 109 133 141 168 157 166 193 192 194 204 216 219 228 227 222 217 234 228 224 228 230 226 223 209 193 163 158 154 154 153 156 152 148 150 148 143 135 106 336 323 318 315 311 308 298 310 309 305 304 306
141 134 111 108 104 123 146 162 179 183 206 198 199 208 209 214 215 200 229 231 233 219 220 226 217 196 180 161 159 160 157 152 149 151 148 153 151 147 146 143 91 319 309 306 308 310 305 299 313 309 308 310 306 306
133 109 144 157 154 130 147 171 186 220 188 222 213 214 206 211 209 218 234 222 216 207 189 189 176 170 162 160 158 154 150 156 151 148 152 155 158 160 163 209 311 319 306 303 302 303 305 308 309 310 305 303 304 304
144 160 159 180 177 158 158 165 187 224 221 191 213 218 209 198 221 240 233 229 200 200 179 169 173 175 170 165 165 164 160 159 160 159 169 168 175 180 219 293 303 290 290 303 306 312 319 316 311 309 309 310 308 310
206 183 185 193 170 189 196 185 197 207 224 206 222 215 204 217 216 204 218 232 213 197 184 177 176 179 180 183 177 176 180 174 168 175 184 186 197 218 241 258 268 278 290 313 318 316 318 317 313 313 313 312 312 310
237 200 209 206 209 198 243 241 230 217 209 215 207 202 201 218 228 198 178 208 207 199 192 189 184 185 187 183 174 183 191 184 176 186 204 225 242 244 240 243 254 256 277 299 302 303 307 308 309 314 317 316 313 311
240 271 224 195 199 203 224 231 219 217 221 195 202 209 208 209 238 130 193 210 209 214 201 198 201 205 207 234 249 224 209 212 213 219 235 246 252 254 258 258 262 279 295 299 293 296 297 302 312 320 321 314 314 321
234 225 211 232 190 192 207 226 244 222 221 191 203 208 212 180 191 172 210 212 209 200 197 197 196 198 196 204 210 196 203 200 197 210 224 238 244 262 252 250 265 278 284 293 295 302 301 304 309 309 302 313 326 330
236 202 206 224 215 207 205 202 220 213 214 220 215 205 208 206 221 225 231 213 186 179 179 175 172 176 177 178 180 185 200 205 211 222 230 235 238 236 238 254 263 274 280 289 302 301 307 311 302 299 307 324 331 334
210 221 226 207 224 214 190 192 182 186 208 222 227 232 215 202 220 220 198 190 185 182 175 172 170 175 179 182 189 194 204 215 222 228 225 228 235 242 252 257 267 278 284 286 299 310 319 307 285 293 317 331 332 335
245 211 205 193 154 147 153 184 183 200 199 204 210 213 212 213 223 227 214 195 192 197 195 191 195 200 197 195 193 196 192 200 212 224 231 239 243 243 261 274 279 277 282 296 319 322 314 300 291 309 321 329 333 337
219 219 237 164 159 187 214 215 231 237 219 217 219 219 217 219 235 218 218 209 204 195 197 196 190 191 192 186 185 191 197 204 215 218 218 223 245 263 270 261 257 262 283 328 324 332 332 325 319 325 330 333 341 346
Wind_Speed_850mb
46 43 41 36 32 28 24 15 11 7 8 6 6 9 13 16 19 21 15 23 12 3 8 6 6 3 2 2 10 8 9 5 8 8 9 6 8 6 7 5 7 12 10 8 4 10 15 27 19 9 18 20 18 10
50 47 44 42 37 32 29 22 18 14 8 7 7 9 11 14 16 18 17 22 14 6 2 10 14 13 11 6 1 1 4 6 4 6 3 5 6 6 8 13 7 11 6 6 8 8 6 38 4 14 22 21 19 16
53 50 52 50 49 43 38 34 28 24 17 10 7 8 12 12 15 16 17 22 11 5 4 3 4 14 18 15 4 3 3 4 5 13 7 4 4 5 11 14 5 8 7 8 5 13 12 29 14 14 23 20 20 17
57 51 48 50 54 53 44 36 30 30 26 20 14 9 10 11 12 14 16 18 11 8 5 3 6 10 14 18 17 12 8 11 16 10 6 4 5 4 2 5 11 10 11 9 11 10 8 18 33 20 27 24 25 24
57 51 46 41 47 49 47 45 39 33 29 24 20 16 11 10 9 9 8 11 9 4 7 4 1 3 8 13 15 13 14 14 7 5 5 5 7 8 3 4 10 14 4 10 7 8 12 5 19 33 33 34 31 31
52 57 51 44 40 42 43 44 41 35 30 25 22 19 15 12 9 6 6 6 8 11 7 4 5 4 3 4 9 9 7 8 5 5 6 6 5 4 8 9 2 16 13 12 8 2 7 7 4 20 33 37 34 29
55 51 50 48 39 37 36 38 38 35 31 27 23 20 17 13 9 4 3 6 4 1 3 7 5 3 9 5 2 7 10 6 6 4 4 2 6 5 6 14 11 13 21 18 16 13 14 14 7 11 25 33 34 26
51 55 49 48 42 36 32 30 30 30 30 26 20 18 16 14 13 10 10 5 2 3 3 6 3 7 10 5 4 3 2 3 7 1 4 5 4 8 9 9 10 14 17 18 18 14 10 4 1 8 18 28 31 30
46 53 59 52 48 43 35 29 27 26 26 23 18 12 9 10 8 15 14 5 2 2 5 6 6 6 10 5 5 2 1 4 1 7 6 5 8 12 7 8 8 7 8 12 11 14 15 9 5 6 11 18 26 28
43 47 53 57 51 42 41 34 28 26 25 20 15 7 9 12 13 17 7 2 4 6 6 8 5 6 9 13 9 9 5 3 6 6 5 8 13 15 12 11 17 22 20 12 15 15 14 10 10 10 13 13 17 19
43 43 49 55 55 49 40 36 32 29 26 19 9 7 10 21 14 7 8 9 9 8 13 12 17 8 8 12 8 6 3 5 6 8 7 9 7 8 4 12 18 21 23 18 14 7 3 6 7 7 7 8 8 6
43 41 45 51 55 51 44 38 36 36 18 18 11 15 22 6 6 9 8 8 11 9 13 14 16 14 9 7 9 9 5 6 6 13 7 6 7 1 7 10 8 4 14 12 13 12 14 14 13 13 10 7 3 0
43 42 43 49 54 52 45 42 38 32 22 19 8 10 9 8 6 13 17 8 8 11 15 13 13 14 6 7 4 10 11 8 11 8 6 1 8 4 6 9 10 8 16 13 10 11 15 15 12 11 8 4 3 2
45 42 43 48 54 56 51 43 35 34 25 6 10 6 12 10 12 10 13 9 7 8 18 20 18 11 8 12 7 8 4 7 8 8 10 11 12 8 11 15 20 22 19 17 16 16 17 18 18 16 13 6 4 5
42 43 42 46 56 60 54 44 36 37 18 8 7 8 13 7 8 10 10 5 6 10 20 13 10 10 13 7 8 4 10 9 13 9 6 19 18 19 21 24 28 29 30 31 29 28 27 24 23 21 18 17 15 15
42 40 48 55 58 60 58 49 41 36 6 7 10 9 11 11 15 13 12 13 9 16 16 8 9 8 11 7 13 16 11 9 9 8 20 26 26 25 25 26 29 29 31 32 31 31 30 28 26 25 24 23 23 23
46 30 55 55 57 63 57 51 24 15 12 8 10 20 15 6 4 8 12 15 15 17 10 6 10 12 7 10 13 7 15 2 18 24 27 29 30 28 28 29 29 30 31 31 30 28 27 24 20 17 18 19 20 23
38 31 58 59 66 61 54 19 13 13 13 14 13 17 15 12 6 6 8 12 16 14 12 4 3 9 8 12 15 12 9 15 21 27 31 31 29 29 28 30 28 27 27 25 24 22 21 19 18 18 19 22 21 24
44 45 64 62 81 39 10 14 12 13 14 13 15 14 12 11 12 12 8 9 16 11 6 8 8 8 11 6 4 14 22 27 33 33 33 31 30 30 29 27 25 23 21 18 16 13 12 15 16 17 18 21 23 25
45 50 58 63 64 12 8 7 18 7 10 13 16 15 14 11 7 10 12 14 16 13 15 11 14 6 5 6 4 11 23 30 39 42 36 32 29 28 24 20 18 15 11 9 8 6 9 10 15 17 20 24 25 27
78 63 53 50 26 10 5 10 11 12 7 11 21 27 23 15 18 18 18 16 21 17 20 30 33 22 18 9 6 18 26 33 34 34 38 36 29 24 20 15 11 8 4 4 6 12 16 17 19 21 25 28 29 32
50 57 40 18 7 7 5 9 6 12 9 7 18 25 21 30 32 29 19 25 19 24 25 19 22 23 21 20 19 26 34 35 33 36 36 33 27 21 16 11 6 1 4 8 11 16 21 23 25 30 31 32 36 35
42 28 12 6 6 4 7 11 8 13 11 10 14 19 17 19 23 15 18 27 27 16 18 17 17 16 23 29 34 32 35 37 36 34 31 25 21 15 10 5 1 4 9 13 19 24 25 32 32 30 33 32 32 33
29 7 5 8 7 8 8 9 8 8 10 8 12 22 12 18 13 19 21 34 23 18 20 22 25 27 30 33 35 34 33 31 31 28 23 19 15 12 8 3 5 10 18 21 19 20 21 24 30 28 29 30 31 33
4 5 7 4 8 10 11 11 11 9 11 14 14 14 12 14 9 9 19 36 26 25 27 30 28 30 36 37 33 30 32 25 23 21 17 16 14 8 4 4 9 15 16 12 14 20 24 27 28 28 29 29 29 32
6 9 13 16 13 10 12 13 16 18 16 17 15 10 17 13 14 10 9 29 30 32 37 41 32 27 27 28 29 28 35 25 21 18 16 15 12 10 9 9 10 10 10 11 16 21 26 28 28 28 30 32 37 40
5 9 10 12 8 10 8 12 14 13 14 12 11 13 9 11 11 10 19 26 23 26 27 33 40 34 23 19 20 21 25 25 21 20 18 20 21 20 14 11 12 12 13 17 20 22 24 26 27 30 36 39 36 35
10 8 11 22 16 16 10 12 13 13 13 11 9 11 9 10 6 4 9 14 26 29 29 30 44 40 45 29 29 31 31 34 32 27 23 20 22 22 23 19 15 22 24 21 19 22 24 26 30 37 36 34 39 41
10 10 9 15 13 12 21 13 15 15 12 17 12 11 7 4 5 4 5 9 15 16 19 25 30 36 36 37 35 29 31 27 22 20 19 17 16 16 16 15 14 15 15 16 26 29 27 28 31 30 28 34 38 40
10 16 11 12 11 12 13 18 14 12 11 13 11 6 6 5 7 11 9 11 14 17 20 22 26 28 30 32 31 27 27 23 20 20 19 18 16 16 16 15 16 16 18 20 22 23 24 28 19 21 27 34 29 30
4 8 9 9 7 7 9 12 10 10 9 8 10 9 10 7 7 12 14 17 22 23 23 23 25 25 26 26 26 26 23 21 23 24 21 16 15 14 14 15 16 19 19 20 23 21 24 19 19 23 25 27 26 31
6 10 7 6 6 10 12 11 12 12 12 12 12 13 11 11 10 12 26 29 29 31 31 24 22 21 22 21 21 20 26 19 18 18 17 15 12 13 14 16 19 17 15 16 17 20 23 19 18 18 20 24 28 30
7 9 6 7 9 11 14 9 6 6 13 13 14 16 15 13 11 13 15 38 34 30 27 25 21 20 24 22 21 20 21 18 19 17 14 13 12 12 14 12 11 9 7 7 14 16 14 11 11 14 17 19 21 23
Wind_Direction_850mb
199 188 185 190 199 211 228 234 240 247 238 249 295 326 333 353 4 16 11 14 41 5 52 44 31 107 184 258 203 131 151 172 188 186 218 142 212 139 209 79 210 207 212 206 237 258 250 146 142 229 111 134 155 155
207 202 200 208 216 216 229 237 255 248 258 242 266 300 317 347 349 9 8 2 24 33 14 88 82 88 88 74 320 99 19 106 113 124 92 155 172 187 259 232 167 221 283 313 251 11 111 170 67 167 161 158 169 163
209 208 209 212 221 228 229 242 247 250 253 263 255 281 302 333 343 360 1 3 28 5 129 162 111 70 61 46 105 277 125 108 71 117 112 92 166 276 225 234 255 194 189 240 264 181 182 193 185 174 177 170 167 173
207 208 208 213 221 229 231 233 238 250 256 257 267 268 288 315 331 351 1 7 1 287 286 113 105 71 56 51 58 80 121 109 117 85 107 156 208 245 251 344 268 28 172 203 247 232 206 210 208 193 182 172 167 168
202 205 204 212 215 219 229 231 236 245 251 256 259 264 274 294 313 324 339 356 3 84 15 343 349 37 43 49 51 74 96 95 80 131 145 119 112 176 142 250 231 190 178 232 278 68 260 49 208 200 190 182 178 173
200 205 211 212 208 213 226 224 224 231 242 252 258 254 257 264 285 325 335 316 305 11 40 240 276 217 201 40 34 44 77 76 58 60 88 104 169 258 208 245 117 207 217 240 292 329 264 257 258 209 207 193 186 185
202 196 199 204 200 207 214 213 216 225 234 242 250 253 248 249 254 232 243 297 301 262 331 255 193 286 201 186 11 31 40 65 59 94 81 125 169 236 261 252 252 254 250 250 257 268 284 269 256 217 201 197 193 185
200 199 197 201 202 201 198 198 204 214 222 231 239 245 244 235 230 229 241 329 20 179 293 274 162 186 176 172 155 60 50 72 38 133 145 205 183 235 252 248 261 264 269 258 254 249 253 285 196 182 186 192 192 191
198 198 200 201 201 201 197 200 200 204 210 218 221 232 235 209 197 218 217 256 304 168 261 249 228 163 168 136 106 115 173 218 200 230 203 217 194 229 263 234 245 275 276 269 282 246 228 246 229 202 193 204 209 212
196 196 197 200 199 196 197 202 199 198 199 199 191 186 206 202 183 167 173 222 227 244 248 259 207 171 196 182 157 154 199 208 216 164 154 232 248 257 253 260 276 276 269 274 241 233 231 230 255 245 231 230 225 220
194 193 194 195 196 197 194 197 196 191 188 179 206 205 200 147 132 176 201 211 182 219 206 226 216 193 189 202 160 221 174 167 228 139 241 199 240 180 231 289 274 270 258 227 225 224 194 144 118 132 143 144 144 175
192 192 190 190 192 193 192 193 190 185 185 190 172 140 141 181 176 200 195 180 218 215 185 199 195 197 165 161 204 174 215 202 226 140 230 239 111 68 322 310 307 297 159 161 150 151 136 110 110 107 98 83 80 181
190 189 187 188 189 184 183 179 183 188 178 164 185 182 186 175 170 203 183 190 206 190 189 181 168 167 135 190 174 189 207 204 129 199 223 317 125 84 35 37 39 158 172 170 153 111 124 119 127 118 91 53 57 338
187 186 185 187 186 181 174 176 178 175 173 202 187 202 214 189 219 185 200 178 140 169 165 167 156 184 164 186 164 208 133 166 210 216 220 141 142 101 78 84 82 87 105 120 122 124 120 113 104 110 109 98 58 26
184 183 184 184 181 179 172 174 174 177 170 217 230 234 208 215 211 193 208 198 173 151 152 151 158 198 168 185 211 147 183 216 213 219 123 151 134 117 105 98 94 93 95 95 98 100 99 94 91 88 78 67 55 43
178 178 187 180 175 178 177 173 176 183 208 219 234 256 219 225 196 196 191 187 159 159 161 187 174 197 192 223 189 202 204 217 182 151 142 142 133 124 115 106 99 98 95 93 91 89 87 82 78 75 71 61 52 43
175 185 180 180 174 175 176 167 160 176 210 212 241 230 250 290 221 172 188 182 173 170 184 185 205 178 128 206 212 215 221 161 137 140 142 144 139 130 120 112 106 102 96 92 89 84 80 76 75 67 53 39 22 8
182 177 183 178 175 174 161 156 150 186 209 209 219 193 209 229 217 196 195 198 180 193 199 209 270 218 210 193 214 169 159 130 136 140 139 139 134 128 124 115 109 102 97 91 85 78 69 55 42 27 8 350 346 336
186 167 180 182 175 150 124 152 165 196 208 185 213 226 232 239 236 235 223 207 201 205 237 218 236 227 207 226 258 170 169 162 149 144 140 136 134 131 124 117 111 106 101 95 84 65 36 359 347 337 336 331 325 320
174 170 171 181 178 145 108 133 153 189 206 190 200 212 225 233 223 227 222 213 203 200 210 222 228 200 253 226 215 193 175 166 156 147 144 143 140 133 128 126 122 110 95 72 29 36 353 338 331 333 325 326 323 314
149 143 148 159 146 103 127 152 165 190 179 206 199 211 226 236 242 230 220 205 204 222 221 228 236 232 254 286 192 172 169 166 166 165 156 149 147 143 136 130 120 111 85 14 346 328 339 319 314 317 316 311 305 305
141 144 131 110 109 133 141 168 157 166 193 192 194 204 216 219 228 227 222 217 234 228 224 228 230 226 223 209 193 163 158 154 154 153 156 152 148 150 148 143 135 106 336 323 318 315 311 308 298 310 309 305 304 306
141 134 111 108 104 123 146 162 179 183 206 198 199 208 209 214 215 200 229 231 233 219 220 226 217 196 180 161 159 160 157 152 149 151 148 153 151 147 146 143 91 319 309 306 308 310 305 299 313 309 308 310 306 306
133 109 144 157 154 130 147 171 186 220 188 222 213 214 206 211 209 218 234 222 216 207 189 189 176 170 162 160 158 154 150 156 151 148 152 155 158 160 163 209 311 319 306 303 302 303 305 308 309 310 305 303 304 304
144 160 159 180 177 158 158 165 187 224 221 191 213 218 209 198 221 240 233 229 200 200 179 169 173 175 170 165 165 164 160 159 160 159 169 168 175 180 219 293 303 290 290 303 306 312 319 316 311 309 309 310 308 310
206 183 185 193 170 189 196 185 197 207 224 206 222 215 204 217 216 204 218 232 213 197 184 177 176 179 180 183 177 176 180 174 168 175 184 186 197 218 241 258 268 278 290 313 318 316 318 317 313 313 313 312 312 310
237 200 209 206 209 198 243 241 230 217 209 215 207 202 201 218 228 198 178 208 207 199 192 189 184 185 187 183 174 183 191 184 176 186 204 225 242 244 240 243 254 256 277 299 302 303 307 308 309 314 317 316 313 311
240 271 224 195 199 203 224 231 219 217 221 195 202 209 208 209 238 130 193 210 209 214 201 198 201 205 207 234 249 224 209 212 213 219 235 246 252 254 258 258 262 279 295 299 293 296 297 302 312 320 321 314 314 321
234 225 211 232 190 192 207 226 244 222 221 191 203 208 212 180 191 172 210 212 209 200 197 197 196 198 196 204 210 196 203 200 197 210 224 238 244 262 252 250 265 278 284 293 295 302 301 304 309 309 302 313 326 330
236 202 206 224 215 207 205 202 220 213 214 220 215 205 208 206 221 225 231 213 186 179 179 175 172 176 177 178 180 185 200 205 211 222 230 235 238 236 238 254 263 274 280 289 302 301 307 311 302 299 307 324 331 334
210 221 226 207 224 214 190 192 182 186 208 222 227 232 215 202 220 220 198 190 185 182 175 172 170 175 179 182 189 194 204 215 222 228 225 228 235 242 252 257 267 278 284 286 299 310 319 307 285 293 317 331 332 335
245 211 205 193 154 147 153 184 183 200 199 204 210 213 212 213 223 227 214 195 192 197 195 191 195 200 197 195 193 196 192 200 212 224 231 239 243 243 261 274 279 277 282 296 319 322 314 300 291 309 321 329 333 337
219 219 237 164 159 187 214 215 231 237 219 217 219 219 217 219 235 218 218 209 204 195 197 196 190 191 192 186 185 191 197 204 215 218 218 223 245 263 270 261 257 262 283 328 324 332 332 325 319 325 330 333 341 346